SCP
0 0 0 0 0 0 0 0 0 0 0 0 0 0 0 0 0 0 0 0 1 0 0 1 0 0 0 0 0 0 0 0 0 0 0 0 0 0 0 0 0 0 0
0 0 0 0 0 0 0 0 0 0 0 0 0 0 0 0 0 0 0 0 0 0 0 0 0 0 0 0 0 0 0 0 0 0 0 0 0 0 0 0 0 0 0
0 0 0 0 0 0 0 0 0 0 0 0 0 0 0 0 0 0 0 0 0 0 0 0 0 0 0 0 0 0 0 0 0 0 0 0 0 0 0 0 0 0 0
0 0 0 0 0 0 0 0 0 0 0 0 0 0 0 0 0 0 0 0 0 0 0 0 0 0 1 0 0 0 0 0 0 0 0 0 0 0 0 0 0 0 0
0 0 0 0 0 0 0 -0 -0 -0 -0 0 0 0 0 0 0 0 0 0 0 0 0 0 0 0 0 0 0 0 0 0 0 0 0 0 0 0 0 0 0 0 0
0 0 0 0 0 0 -0 -0 -0 -0 -0 0 0 0 0 0 0 0 0 0 0 0 0 0 0 0 0 0 0 0 0 0 0 0 0 0 0 0 0 0 0 0 0
0 0 0 0 0 0 -0 -0 -0 -0 -0 -0 0 0 0 0 0 0 0 0 0 0 0 0 0 0 0 -0 0 0 0 0 0 0 0 0 0 0 0 0 0 0 0
0 0 0 0 0 0 0 -0 -0 -0 0 -0 0 0 0 0 0 0 0 0 0 0 0 0 0 0 0 0 0 0 0 0 0 0 0 0 0 0 0 0 0 0 0
0 0 0 0 0 0 0 -0 -0 0 0 0 0 -0 0 0 0 0 0 0 0 0 0 0 0 0 0 0 0 0 0 0 0 0 0 0 0 0 0 0 0 0 0
0 0 0 0 0 0 0 0 0 0 0 0 0 0 0 0 0 0 0 0 0 0 0 0 0 0 0 0 0 0 0 0 0 0 0 0 0 0 0 0 0 0 0
0 0 0 0 0 0 0 0 0 0 0 0 0 0 0 0 0 0 0 0 0 0 0 0 0 0 0 0 0 0 0 0 0 0 0 0 0 0 0 0 0 0 0
0 0 0 0 0 0 0 0 0 0 0 0 0 0 0 0 0 0 0 0 0 0 0 0 0 0 0 0 0 0 0 0 0 0 0 0 0 0 0 0 0 0 0
0 0 0 0 0 0 0 0 0 0 0 0 0 0 0 0 0 0 0 0 0 0 0 0 0 0 0 0 0 0 0 0 0 0 0 0 0 0 0 0 0 0 0
0 0 0 0 0 0 0 0 0 0 0 0 0 0 0 0 0 0 0 0 0 0 0 0 0 0 0 0 0 0 0 0 0 0 0 0 0 0 0 0 0 0 0
0 0 0 0 0 0 0 0 0 0 0 0 0 0 0 0 0 0 0 0 0 0 0 0 0 0 0 0 0 0 0 0 0 0 0 0 0 0 0 0 0 0 0
0 0 0 0 0 0 0 0 0 0 0 0 0 0 0 0 0 0 0 0 0 0 0 0 0 0 0 0 0 0 0 0 0 0 0 0 0 0 0 0 0 0 0
0 0 0 0 0 0 0 0 0 0 0 0 0 0 0 0 0 0 0 0 0 0 0 0 0 0 0 0 0 0 0 0 0 0 0 0 0 0 0 0 0 0 0
0 0 0 0 0 0 0 0 0 0 0 0 0 0 0 0 0 0 0 0 0 0 0 0 0 0 0 0 0 0 0 0 0 0 0 0 0 0 0 0 0 0 0
0 0 0 0 0 0 0 0 0 0 0 0 0 0 0 0 0 0 0 0 0 0 0 0 0 0 0 0 0 0 0 0 0 0 0 0 0 0 0 0 0 0 0
0 0 0 0 0 0 0 0 0 0 0 0 0 0 0 0 0 0 0 0 0 0 0 0 0 0 0 0 0 0 0 0 0 0 0 0 0 0 0 0 0 0 0
0 0 0 0 0 0 0 0 0 0 0 0 0 0 0 0 0 0 0 0 0 0 0 0 0 0 0 0 0 0 0 0 0 0 0 0 0 0 0 0 0 0 0
0 0 0 0 0 0 0 0 0 0 0 0 0 0 0 0 0 0 0 0 0 0 0 0 0 0 0 0 0 0 0 0 0 0 0 0 0 0 0 0 0 0 0
0 0 0 0 0 0 0 0 0 0 0 0 0 0 0 0 0 0 0 0 0 0 0 0 0 0 0 0 0 0 0 0 0 0 0 0 0 0 0 0 0 0 0
0 0 0 0 0 0 0 0 0 0 0 0 0 0 0 0 0 0 0 0 0 0 0 0 0 0 0 0 0 0 0 0 0 0 0 0 0 0 0 0 0 0 0
0 0 0 0 0 0 0 0 0 0 0 0 0 0 0 0 0 0 0 0 0 0 0 0 0 0 0 0 0 0 0 0 0 0 0 0 0 0 0 0 0 0 0
0 0 0 0 0 0 0 0 0 0 0 0 0 0 0 0 0 0 0 0 0 0 0 0 0 0 0 0 0 0 0 0 0 0 0 0 0 0 0 0 0 0 0
Wind_Speed_500mb
6 10 17 22 27 29 32 35 37 39 41 39 39 40 40 38 38 39 40 34 34 29 27 31 31 29 27 31 31 32 34 31 33 32 31 29 25 23 20 17 15 15 14
7 8 10 13 17 21 24 26 28 29 30 31 31 32 34 36 34 32 25 23 28 29 24 30 34 35 28 32 31 34 32 30 32 32 31 29 27 23 20 17 15 13 11
4 6 9 13 17 20 20 21 24 26 26 26 28 28 27 27 29 33 35 32 31 32 30 35 33 34 35 33 28 34 33 32 31 33 31 29 28 23 20 18 16 13 10
8 11 15 19 23 27 28 29 29 28 28 28 27 25 23 20 21 25 30 39 41 40 39 30 25 27 32 37 33 36 33 32 33 35 32 29 27 24 21 17 16 13 11
9 13 16 21 25 29 32 34 35 36 36 34 33 31 26 17 11 12 11 13 20 28 36 33 33 33 31 36 35 33 35 33 30 35 34 29 27 26 22 17 16 12 11
7 10 15 21 26 29 31 34 36 37 40 40 36 35 18 11 4 5 3 6 13 13 14 17 23 25 28 28 34 33 32 34 31 34 37 33 26 28 24 16 15 11 11
3 10 14 19 23 28 36 39 37 37 38 43 43 34 17 14 7 14 14 9 10 12 12 12 16 22 27 30 28 27 31 34 36 31 38 37 27 28 24 18 15 10 11
2 8 12 18 21 27 33 40 42 41 40 44 45 34 25 8 1 27 14 13 12 20 18 17 18 24 29 27 26 26 27 31 36 37 37 31 27 27 24 18 16 9 10
4 7 12 15 20 25 32 40 44 43 41 38 39 30 16 14 51 7 18 16 31 22 24 22 19 22 27 30 27 21 25 28 32 37 36 34 29 27 22 19 16 11 9
9 9 13 15 20 24 29 36 41 41 39 37 31 30 24 24 20 30 35 44 39 30 24 24 25 20 27 26 24 18 16 24 27 33 36 33 31 27 21 19 15 11 9
16 13 15 18 22 24 28 35 40 39 37 34 33 32 29 29 22 35 49 65 48 42 33 27 23 20 23 26 19 18 16 22 24 26 36 36 32 26 22 18 15 10 9
21 18 17 18 21 25 29 34 39 39 37 35 32 31 28 29 34 34 48 53 66 57 50 27 18 16 15 14 13 14 15 17 22 26 29 32 33 27 25 18 16 9 5
26 23 19 20 22 27 30 35 37 38 36 34 33 31 29 30 34 39 42 52 59 70 55 31 20 17 14 12 12 13 12 13 19 24 25 31 32 30 26 21 15 12 7
32 27 23 22 24 27 32 36 38 38 38 36 34 34 34 32 35 39 42 43 58 42 49 51 31 22 16 18 14 14 15 14 15 21 24 27 31 30 29 23 17 16 14
37 28 25 25 26 28 31 35 38 38 40 38 37 38 39 37 38 40 41 44 41 50 66 46 49 39 40 27 23 20 19 16 13 18 19 27 31 33 32 25 17 18 19
37 29 26 25 25 28 32 36 39 39 42 42 42 43 44 43 43 46 50 52 49 45 58 61 61 54 48 35 29 26 25 22 18 20 20 32 32 37 33 23 19 21 21
37 31 26 24 26 31 35 38 41 43 45 47 46 48 51 48 51 52 54 59 61 45 60 76 71 45 51 42 35 29 27 28 24 19 22 36 41 42 32 27 22 21 18
39 31 24 25 30 36 39 42 43 46 50 53 55 56 58 57 58 60 63 61 61 53 53 63 59 53 42 40 35 38 28 27 29 19 24 32 53 43 33 31 26 24 19
35 27 23 27 33 38 44 46 49 54 59 61 62 63 65 65 69 70 69 66 53 57 56 62 64 58 46 40 34 34 35 28 24 16 21 16 51 47 40 33 28 24 18
27 25 26 31 37 42 49 54 58 64 67 70 70 71 72 72 72 71 69 61 56 55 58 64 64 59 50 43 35 33 33 28 24 21 26 33 38 51 46 37 29 24 20
29 30 34 39 43 47 54 59 63 69 75 77 75 72 70 67 64 61 54 55 56 61 62 68 66 63 55 49 38 22 23 27 28 25 25 31 29 52 49 41 32 29 23
39 40 40 45 47 52 59 63 70 75 78 76 73 71 69 66 65 61 58 54 58 68 75 74 77 70 62 52 41 29 19 20 28 34 36 32 31 51 56 46 36 31 28
46 44 47 49 53 60 65 71 72 78 74 70 68 72 73 71 68 65 64 62 55 56 63 71 80 74 67 58 46 45 34 32 29 39 34 39 38 54 59 50 40 31 29
47 47 50 55 61 67 70 69 73 71 69 69 72 74 77 80 78 76 72 70 68 65 65 60 64 69 71 66 64 54 49 40 42 41 44 48 48 55 59 51 43 33 33
48 52 52 58 66 65 64 68 66 68 73 75 76 80 84 85 79 75 73 72 76 77 70 66 62 55 56 67 68 64 63 47 45 39 48 49 48 56 57 52 42 33 34
49 49 57 60 61 63 64 62 62 66 74 76 79 80 73 66 61 58 58 57 69 71 68 64 63 58 53 49 52 59 60 62 57 54 53 57 52 53 45 52 48 40 38
Wind_Direction_500mb
263 302 303 305 303 298 295 292 290 290 290 287 287 288 289 289 289 296 286 285 276 289 304 290 283 291 303 312 315 319 316 312 313 322 330 335 340 344 355 1 8 15 11
259 294 309 310 311 316 317 316 312 307 302 301 299 295 292 289 285 280 299 292 283 282 290 298 286 288 295 301 304 311 310 305 302 311 320 329 334 340 345 352 0 13 9
118 46 25 10 1 358 349 340 327 320 314 312 312 307 302 297 287 274 276 285 289 288 287 291 284 287 288 298 296 302 302 302 294 299 310 322 327 332 336 339 349 3 359
94 48 29 19 8 2 357 355 344 338 335 333 333 327 320 309 299 286 278 276 279 284 288 287 289 288 282 290 295 295 298 296 291 291 299 311 319 322 327 332 337 351 341
71 39 25 17 10 3 360 358 352 346 343 345 345 344 333 320 300 290 303 316 313 292 275 274 285 287 287 280 282 292 294 297 290 285 290 299 310 313 318 323 331 340 338
74 35 23 16 8 5 4 360 354 350 348 348 350 352 1 11 113 57 330 358 356 345 320 289 290 275 277 281 278 282 290 304 297 289 286 289 299 305 309 317 324 325 337
84 29 19 12 8 6 5 3 356 352 352 348 351 9 17 15 177 18 326 303 322 331 340 319 292 289 275 287 289 284 289 295 297 300 283 280 288 297 306 310 311 323 329
160 6 3 8 6 7 4 1 359 358 359 356 359 2 360 48 55 327 0 297 304 304 294 300 300 292 294 294 285 287 290 303 299 301 304 280 278 286 299 300 301 314 319
218 330 342 356 358 1 1 3 359 358 358 1 359 13 355 332 334 296 345 346 321 312 289 284 286 293 298 294 290 287 283 303 291 294 289 296 279 276 286 290 299 304 290
228 287 316 341 352 352 354 356 357 355 353 353 355 354 351 331 328 320 325 332 337 332 312 289 284 294 304 300 306 273 292 305 290 289 274 277 287 274 275 281 290 287 266
233 266 307 327 337 341 346 349 350 351 348 348 345 342 342 337 341 322 318 326 331 337 334 321 295 300 303 304 296 277 292 302 296 286 273 265 278 276 271 270 267 266 245
237 259 292 308 322 331 337 341 343 344 344 342 339 336 335 332 330 323 313 317 322 329 330 334 318 291 303 309 293 280 288 305 300 295 259 263 269 271 264 259 254 237 204
239 256 283 298 310 324 329 332 336 339 338 337 334 332 326 326 326 326 313 315 315 320 326 332 341 299 288 305 304 284 284 298 295 290 270 253 258 264 259 258 246 219 154
240 255 279 287 304 313 318 323 330 334 331 331 328 324 321 321 323 325 322 318 317 316 319 316 326 317 299 298 319 291 291 289 291 267 275 250 256 260 254 249 238 197 190
239 255 275 284 299 307 312 317 322 328 326 327 323 320 317 318 318 320 324 321 301 305 309 309 316 314 309 295 293 294 290 292 285 274 258 250 256 252 250 247 235 224 205
239 260 269 283 297 309 314 316 319 323 323 323 322 318 315 314 311 313 315 316 306 288 286 289 302 308 309 297 285 287 279 288 280 270 243 249 251 244 247 242 228 230 230
242 260 269 283 301 310 315 316 317 319 319 318 318 316 314 311 307 307 308 310 309 282 284 291 299 302 302 302 281 276 271 274 278 272 233 242 245 236 241 237 225 230 249
248 254 265 290 304 312 316 315 313 313 314 316 316 314 312 309 305 303 302 302 302 296 288 291 297 301 293 302 292 279 271 268 275 273 236 237 243 232 233 233 229 226 240
238 246 268 286 303 314 313 311 310 311 313 312 311 311 310 306 302 300 298 296 290 292 284 288 295 296 290 297 294 281 267 265 272 262 261 264 243 232 229 230 232 225 234
235 253 267 286 300 308 309 309 310 310 309 308 308 308 306 302 301 299 294 288 286 283 280 282 286 291 291 283 290 296 272 267 274 253 249 247 240 229 229 229 231 229 232
237 250 264 278 290 303 305 305 305 307 305 303 304 305 302 300 300 301 292 283 276 279 278 279 279 285 284 285 282 289 287 262 268 264 254 246 250 226 227 229 227 229 231
240 252 265 278 291 299 300 301 302 301 301 302 305 306 303 304 302 299 300 288 272 269 267 268 273 273 275 276 281 264 260 292 265 255 251 248 246 237 233 236 234 227 226
245 257 269 283 289 294 296 297 299 298 299 303 306 304 302 300 298 298 296 292 287 279 267 264 264 262 263 267 269 270 247 249 259 258 268 234 239 232 233 236 236 237 228
247 261 273 281 287 293 295 297 298 299 299 302 301 299 298 298 298 295 291 287 285 284 282 280 266 261 260 261 261 262 265 259 250 252 258 240 239 229 230 231 240 233 229
255 262 273 283 289 293 297 296 296 299 301 305 304 302 303 307 305 300 292 286 282 278 277 276 272 269 263 255 254 256 253 250 242 245 241 239 236 226 226 225 231 231 229
256 272 284 289 291 294 296 296 302 304 304 305 302 305 308 306 308 308 301 291 283 280 279 276 273 265 260 257 247 243 245 242 238 236 236 227 231 224 214 225 227 231 228
Wind_Speed_850mb
6 10 17 22 27 29 32 35 37 39 41 39 39 40 40 38 38 39 40 34 34 29 27 31 31 29 27 31 31 32 34 31 33 32 31 29 25 23 20 17 15 15 14
7 8 10 13 17 21 24 26 28 29 30 31 31 32 34 36 34 32 25 23 28 29 24 30 34 35 28 32 31 34 32 30 32 32 31 29 27 23 20 17 15 13 11
4 6 9 13 17 20 20 21 24 26 26 26 28 28 27 27 29 33 35 32 31 32 30 35 33 34 35 33 28 34 33 32 31 33 31 29 28 23 20 18 16 13 10
8 11 15 19 23 27 28 29 29 28 28 28 27 25 23 20 21 25 30 39 41 40 39 30 25 27 32 37 33 36 33 32 33 35 32 29 27 24 21 17 16 13 11
9 13 16 21 25 29 32 34 35 36 36 34 33 31 26 17 11 12 11 13 20 28 36 33 33 33 31 36 35 33 35 33 30 35 34 29 27 26 22 17 16 12 11
7 10 15 21 26 29 31 34 36 37 40 40 36 35 18 11 4 5 3 6 13 13 14 17 23 25 28 28 34 33 32 34 31 34 37 33 26 28 24 16 15 11 11
3 10 14 19 23 28 36 39 37 37 38 43 43 34 17 14 7 14 14 9 10 12 12 12 16 22 27 30 28 27 31 34 36 31 38 37 27 28 24 18 15 10 11
2 8 12 18 21 27 33 40 42 41 40 44 45 34 25 8 1 27 14 13 12 20 18 17 18 24 29 27 26 26 27 31 36 37 37 31 27 27 24 18 16 9 10
4 7 12 15 20 25 32 40 44 43 41 38 39 30 16 14 51 7 18 16 31 22 24 22 19 22 27 30 27 21 25 28 32 37 36 34 29 27 22 19 16 11 9
9 9 13 15 20 24 29 36 41 41 39 37 31 30 24 24 20 30 35 44 39 30 24 24 25 20 27 26 24 18 16 24 27 33 36 33 31 27 21 19 15 11 9
16 13 15 18 22 24 28 35 40 39 37 34 33 32 29 29 22 35 49 65 48 42 33 27 23 20 23 26 19 18 16 22 24 26 36 36 32 26 22 18 15 10 9
21 18 17 18 21 25 29 34 39 39 37 35 32 31 28 29 34 34 48 53 66 57 50 27 18 16 15 14 13 14 15 17 22 26 29 32 33 27 25 18 16 9 5
26 23 19 20 22 27 30 35 37 38 36 34 33 31 29 30 34 39 42 52 59 70 55 31 20 17 14 12 12 13 12 13 19 24 25 31 32 30 26 21 15 12 7
32 27 23 22 24 27 32 36 38 38 38 36 34 34 34 32 35 39 42 43 58 42 49 51 31 22 16 18 14 14 15 14 15 21 24 27 31 30 29 23 17 16 14
37 28 25 25 26 28 31 35 38 38 40 38 37 38 39 37 38 40 41 44 41 50 66 46 49 39 40 27 23 20 19 16 13 18 19 27 31 33 32 25 17 18 19
37 29 26 25 25 28 32 36 39 39 42 42 42 43 44 43 43 46 50 52 49 45 58 61 61 54 48 35 29 26 25 22 18 20 20 32 32 37 33 23 19 21 21
37 31 26 24 26 31 35 38 41 43 45 47 46 48 51 48 51 52 54 59 61 45 60 76 71 45 51 42 35 29 27 28 24 19 22 36 41 42 32 27 22 21 18
39 31 24 25 30 36 39 42 43 46 50 53 55 56 58 57 58 60 63 61 61 53 53 63 59 53 42 40 35 38 28 27 29 19 24 32 53 43 33 31 26 24 19
35 27 23 27 33 38 44 46 49 54 59 61 62 63 65 65 69 70 69 66 53 57 56 62 64 58 46 40 34 34 35 28 24 16 21 16 51 47 40 33 28 24 18
27 25 26 31 37 42 49 54 58 64 67 70 70 71 72 72 72 71 69 61 56 55 58 64 64 59 50 43 35 33 33 28 24 21 26 33 38 51 46 37 29 24 20
29 30 34 39 43 47 54 59 63 69 75 77 75 72 70 67 64 61 54 55 56 61 62 68 66 63 55 49 38 22 23 27 28 25 25 31 29 52 49 41 32 29 23
39 40 40 45 47 52 59 63 70 75 78 76 73 71 69 66 65 61 58 54 58 68 75 74 77 70 62 52 41 29 19 20 28 34 36 32 31 51 56 46 36 31 28
46 44 47 49 53 60 65 71 72 78 74 70 68 72 73 71 68 65 64 62 55 56 63 71 80 74 67 58 46 45 34 32 29 39 34 39 38 54 59 50 40 31 29
47 47 50 55 61 67 70 69 73 71 69 69 72 74 77 80 78 76 72 70 68 65 65 60 64 69 71 66 64 54 49 40 42 41 44 48 48 55 59 51 43 33 33
48 52 52 58 66 65 64 68 66 68 73 75 76 80 84 85 79 75 73 72 76 77 70 66 62 55 56 67 68 64 63 47 45 39 48 49 48 56 57 52 42 33 34
49 49 57 60 61 63 64 62 62 66 74 76 79 80 73 66 61 58 58 57 69 71 68 64 63 58 53 49 52 59 60 62 57 54 53 57 52 53 45 52 48 40 38
Wind_Direction_850mb
263 302 303 305 303 298 295 292 290 290 290 287 287 288 289 289 289 296 286 285 276 289 304 290 283 291 303 312 315 319 316 312 313 322 330 335 340 344 355 1 8 15 11
259 294 309 310 311 316 317 316 312 307 302 301 299 295 292 289 285 280 299 292 283 282 290 298 286 288 295 301 304 311 310 305 302 311 320 329 334 340 345 352 0 13 9
118 46 25 10 1 358 349 340 327 320 314 312 312 307 302 297 287 274 276 285 289 288 287 291 284 287 288 298 296 302 302 302 294 299 310 322 327 332 336 339 349 3 359
94 48 29 19 8 2 357 355 344 338 335 333 333 327 320 309 299 286 278 276 279 284 288 287 289 288 282 290 295 295 298 296 291 291 299 311 319 322 327 332 337 351 341
71 39 25 17 10 3 360 358 352 346 343 345 345 344 333 320 300 290 303 316 313 292 275 274 285 287 287 280 282 292 294 297 290 285 290 299 310 313 318 323 331 340 338
74 35 23 16 8 5 4 360 354 350 348 348 350 352 1 11 113 57 330 358 356 345 320 289 290 275 277 281 278 282 290 304 297 289 286 289 299 305 309 317 324 325 337
84 29 19 12 8 6 5 3 356 352 352 348 351 9 17 15 177 18 326 303 322 331 340 319 292 289 275 287 289 284 289 295 297 300 283 280 288 297 306 310 311 323 329
160 6 3 8 6 7 4 1 359 358 359 356 359 2 360 48 55 327 0 297 304 304 294 300 300 292 294 294 285 287 290 303 299 301 304 280 278 286 299 300 301 314 319
218 330 342 356 358 1 1 3 359 358 358 1 359 13 355 332 334 296 345 346 321 312 289 284 286 293 298 294 290 287 283 303 291 294 289 296 279 276 286 290 299 304 290
228 287 316 341 352 352 354 356 357 355 353 353 355 354 351 331 328 320 325 332 337 332 312 289 284 294 304 300 306 273 292 305 290 289 274 277 287 274 275 281 290 287 266
233 266 307 327 337 341 346 349 350 351 348 348 345 342 342 337 341 322 318 326 331 337 334 321 295 300 303 304 296 277 292 302 296 286 273 265 278 276 271 270 267 266 245
237 259 292 308 322 331 337 341 343 344 344 342 339 336 335 332 330 323 313 317 322 329 330 334 318 291 303 309 293 280 288 305 300 295 259 263 269 271 264 259 254 237 204
239 256 283 298 310 324 329 332 336 339 338 337 334 332 326 326 326 326 313 315 315 320 326 332 341 299 288 305 304 284 284 298 295 290 270 253 258 264 259 258 246 219 154
240 255 279 287 304 313 318 323 330 334 331 331 328 324 321 321 323 325 322 318 317 316 319 316 326 317 299 298 319 291 291 289 291 267 275 250 256 260 254 249 238 197 190
239 255 275 284 299 307 312 317 322 328 326 327 323 320 317 318 318 320 324 321 301 305 309 309 316 314 309 295 293 294 290 292 285 274 258 250 256 252 250 247 235 224 205
239 260 269 283 297 309 314 316 319 323 323 323 322 318 315 314 311 313 315 316 306 288 286 289 302 308 309 297 285 287 279 288 280 270 243 249 251 244 247 242 228 230 230
242 260 269 283 301 310 315 316 317 319 319 318 318 316 314 311 307 307 308 310 309 282 284 291 299 302 302 302 281 276 271 274 278 272 233 242 245 236 241 237 225 230 249
248 254 265 290 304 312 316 315 313 313 314 316 316 314 312 309 305 303 302 302 302 296 288 291 297 301 293 302 292 279 271 268 275 273 236 237 243 232 233 233 229 226 240
238 246 268 286 303 314 313 311 310 311 313 312 311 311 310 306 302 300 298 296 290 292 284 288 295 296 290 297 294 281 267 265 272 262 261 264 243 232 229 230 232 225 234
235 253 267 286 300 308 309 309 310 310 309 308 308 308 306 302 301 299 294 288 286 283 280 282 286 291 291 283 290 296 272 267 274 253 249 247 240 229 229 229 231 229 232
237 250 264 278 290 303 305 305 305 307 305 303 304 305 302 300 300 301 292 283 276 279 278 279 279 285 284 285 282 289 287 262 268 264 254 246 250 226 227 229 227 229 231
240 252 265 278 291 299 300 301 302 301 301 302 305 306 303 304 302 299 300 288 272 269 267 268 273 273 275 276 281 264 260 292 265 255 251 248 246 237 233 236 234 227 226
245 257 269 283 289 294 296 297 299 298 299 303 306 304 302 300 298 298 296 292 287 279 267 264 264 262 263 267 269 270 247 249 259 258 268 234 239 232 233 236 236 237 228
247 261 273 281 287 293 295 297 298 299 299 302 301 299 298 298 298 295 291 287 285 284 282 280 266 261 260 261 261 262 265 259 250 252 258 240 239 229 230 231 240 233 229
255 262 273 283 289 293 297 296 296 299 301 305 304 302 303 307 305 300 292 286 282 278 277 276 272 269 263 255 254 256 253 250 242 245 241 239 236 226 226 225 231 231 229
256 272 284 289 291 294 296 296 302 304 304 305 302 305 308 306 308 308 301 291 283 280 279 276 273 265 260 257 247 243 245 242 238 236 236 227 231 224 214 225 227 231 228